Location: Strada George Coșbuc
(47.6577°N, 23.5639°E)
Time: 01:26:16
(UTC+03:00)

ISS - Pass Details

Date: 14 September 2017
Orbit: 401 x 407 km, 51.6° (Epoch: 23 September)

Event Time Altitude Azimuth Distance (km) Brightness Sun altitude
Exits shadow 04:04:06 20° 56° (NE) 1,025 -1.1 -27.8°
Drops below altitude 10° 04:05:17 10° 64° (ENE) 1,473 -0.1 -27.6°
Sets 04:07:26 0° 71° (ENE) 2,335 1.1 -27.4°
